This is the latest recevied weather packets stored in our database for station/object WC4PEM-4. If no packets are shown the sender has not sent any weather packets the latest 10 day(s).
| Time | Temp. | Humidity | Pressure | Rain* | Wind** | Luminosity | Snow |
|---|---|---|---|---|---|---|---|
| 1788552670 | 31.67° C | 67% | 1013.3 hPa | 1.27 mm | - | - | - |
| 1788552370 | 31.67° C | 67% | 1013.4 hPa | 1.27 mm | - | - | - |
| 1788552275 | 31.11° C | 71% | 1013.4 hPa | 1.27 mm | - | - | - |
| 1788552070 | 31.11° C | 71% | 1013.4 hPa | 1.27 mm | - | - | - |
| 1788551770 | 30.56° C | 70% | 1013.5 hPa | 1.27 mm | - | - | - |
| 1788551582 | 30.56° C | 79% | 1013.6 hPa | 1.27 mm | - | - | - |
| 1788551470 | 30.56° C | 79% | 1013.6 hPa | 1.27 mm | - | - | - |
| 1788551170 | 30° C | 77% | 1013.7 hPa | 1.27 mm | - | - | - |
| 1788550870 | 30° C | 76% | 1013.7 hPa | 1.27 mm | - | - | - |
| 1788550570 | 30.56° C | 79% | 1013.7 hPa | 1.27 mm | - | - | - |
| 1788550270 | 31.11° C | 71% | 1013.9 hPa | 1.27 mm | - | - | - |
| 1788550068 | 32.22° C | 67% | 1013.9 hPa | 0 mm | - | - | - |
| 1788549970 | 32.22° C | 67% | 1013.9 hPa | 0 mm | - | - | - |
| 1788549670 | 32.78° C | 66% | 1013.7 hPa | 0 mm | - | - | - |
| 1788549370 | 32.78° C | 64% | 1013.9 hPa | 0 mm | - | - | - |
| 1788549070 | 32.78° C | 66% | 1014 hPa | 0 mm | - | - | - |
| 1788548865 | 32.78° C | 65% | 1014 hPa | 0 mm | - | - | - |
| 1788548770 | 32.78° C | 65% | 1014 hPa | 0 mm | - | - | - |
| 1788548470 | 32.22° C | 67% | 1014.1 hPa | 0 mm | - | - | - |
| 1788548170 | 32.22° C | 66% | 1014.2 hPa | 0 mm | - | - | - |
| 1788547870 | 32.78° C | 65% | 1014.2 hPa | 0 mm | - | - | - |
| 1788547698 | 32.78° C | 64% | 1014.2 hPa | 0 mm | - | - | - |
| 1788547570 | 32.78° C | 64% | 1014.2 hPa | 0 mm | - | - | - |
| 1788547270 | 32.78° C | 63% | 1014.3 hPa | 0 mm | - | - | - |
| 1788547114 | 33.33° C | 62% | 1014.3 hPa | 0 mm | - | - | - |
* Rain latest hour (hover to see other rain measurements)
** Current wind speed in m/s (hover to see current wind gust speed)